When you browse on this site, cookies collect data to enhance your experience and personalize the content and advertising you see.
Visit our Privacy Policy to learn more. By continuing to use the site, you agree to this use of cookies and data.
  • In Austria
  • List of Countries
  • For 7 days
  • Water Temperature
  • Weather Map
  • News
  • Weather Widgets
  • user-avatar
    Login

    Hourly Weather Hlybochok

    Today, 23 September, Monday

    Time Temperature Precipitation Wind Pressure Humidity
    00:00 +12°C° 0 mm 1 mps 738 mmHg 75%
    01:00 +12°C° 0 mm 1 mps 738 mmHg 77%
    02:00 +11°C° 0 mm 1 mps 738 mmHg 76%
    03:00 +11°C° 0 mm 1 mps 738 mmHg 78%
    04:00 +10°C° 0 mm 1 mps 738 mmHg 80%
    05:00 +10°C° 0 mm 1 mps 737 mmHg 82%
    06:00 +11°C° 0 mm 1 mps 738 mmHg 77%
    07:00 +12°C° 0 mm 2 mps 738 mmHg 73%
    08:00 +14°C° 0 mm 2 mps 739 mmHg 68%
    09:00 +15°C° 0 mm 2 mps 739 mmHg 63%
    10:00 +17°C° 0 mm 2 mps 739 mmHg 57%
    11:00 +19°C° 0 mm 2 mps 739 mmHg 52%
    12:00 +19°C° 0 mm 2 mps 739 mmHg 50%
    13:00 +20°C° 0 mm 2 mps 738 mmHg 47%
    14:00 +20°C° 0 mm 3 mps 738 mmHg 48%
    15:00 +19°C° 0 mm 4 mps 738 mmHg 53%
    16:00 +17°C° 0 mm 5 mps 738 mmHg 58%
    17:00 +15°C° 0 mm 6 mps 738 mmHg 62%
    18:00 +13°C° 0 mm 5 mps 738 mmHg 65%
    19:00 +10°C° 0 mm 5 mps 739 mmHg 68%
    20:00 +9°C° 0 mm 5 mps 739 mmHg 71%
    21:00 +8°C° 0 mm 5 mps 739 mmHg 71%
    22:00 +8°C° 0 mm 4 mps 739 mmHg 72%
    23:00 +7°C° 0 mm 4 mps 739 mmHg 72%

    Tomorrow, 24 September, Tuesday

    Time Temperature Precipitation Wind Pressure Humidity
    00:00 +7°C° 0 mm 4 mps 739 mmHg 71%
    01:00 +7°C° 0 mm 4 mps 739 mmHg 70%
    02:00 +7°C° 0 mm 3 mps 740 mmHg 69%
    03:00 +7°C° 0 mm 3 mps 739 mmHg 67%
    04:00 +7°C° 0 mm 3 mps 739 mmHg 65%
    05:00 +7°C° 0 mm 3 mps 739 mmHg 63%
    06:00 +7°C° 0 mm 4 mps 739 mmHg 59%
    07:00 +8°C° 0 mm 4 mps 739 mmHg 54%
    08:00 +10°C° 0 mm 4 mps 740 mmHg 50%
    09:00 +12°C° 0 mm 4 mps 740 mmHg 47%
    10:00 +14°C° 0 mm 4 mps 739 mmHg 45%
    11:00 +17°C° 0 mm 4 mps 739 mmHg 43%
    12:00 +18°C° 0 mm 4 mps 739 mmHg 44%
    13:00 +19°C° 0 mm 4 mps 738 mmHg 44%
    14:00 +20°C° 0 mm 4 mps 738 mmHg 44%
    15:00 +19°C° 0 mm 4 mps 738 mmHg 46%
    16:00 +19°C° 0 mm 3 mps 737 mmHg 49%
    17:00 +18°C° 0 mm 3 mps 737 mmHg 51%
    18:00 +16°C° 0 mm 3 mps 737 mmHg 57%
    19:00 +14°C° 0 mm 3 mps 737 mmHg 62%
    20:00 +12°C° 0 mm 4 mps 737 mmHg 68%
    21:00 +11°C° 0 mm 4 mps 737 mmHg 69%
    22:00 +11°C° 0 mm 4 mps 737 mmHg 71%
    23:00 +10°C° 0 mm 4 mps 737 mmHg 72%

    Day after tomorrow, 25 September, Wednesday

    Time Temperature Precipitation Wind Pressure Humidity
    00:00 +10°C° 0 mm 4 mps 737 mmHg 73%
    01:00 +10°C° 0 mm 3 mps 737 mmHg 73%
    02:00 +9°C° 0 mm 3 mps 737 mmHg 74%
    03:00 +9°C° 0 mm 3 mps 737 mmHg 75%
    04:00 +9°C° 0 mm 3 mps 737 mmHg 76%
    05:00 +9°C° 0 mm 3 mps 737 mmHg 77%
    06:00 +10°C° 0 mm 4 mps 737 mmHg 76%
    07:00 +11°C° 0 mm 4 mps 737 mmHg 75%
    08:00 +13°C° 0 mm 5 mps 736 mmHg 75%
    09:00 +15°C° 0 mm 5 mps 736 mmHg 68%
    10:00 +17°C° 0 mm 6 mps 736 mmHg 62%
    11:00 +20°C° 0 mm 6 mps 736 mmHg 55%
    12:00 +20°C° 0 mm 6 mps 736 mmHg 53%
    13:00 +21°C° 0 mm 6 mps 736 mmHg 50%
    14:00 +21°C° 0 mm 6 mps 735 mmHg 48%
    15:00 +21°C° 0.1 mm 5 mps 735 mmHg 51%
    16:00 +20°C° 0.1 mm 4 mps 735 mmHg 54%
    17:00 +19°C° 0.1 mm 4 mps 735 mmHg 57%
    18:00 +18°C° 0.4 mm 3 mps 735 mmHg 67%
    19:00 +16°C° 0.4 mm 2 mps 735 mmHg 76%
    20:00 +15°C° 0.4 mm 2 mps 735 mmHg 85%
    21:00 +15°C° 0.4 mm 2 mps 735 mmHg 87%
    22:00 +14°C° 0.4 mm 3 mps 735 mmHg 90%
    23:00 +14°C° 0.4 mm 3 mps 734 mmHg 92%

    26 September, Thursday

    Time Temperature Precipitation Wind Pressure Humidity
    00:00 +13°C° 0.1 mm 3 mps 734 mmHg 92%
    01:00 +14°C° 0.1 mm 2 mps 734 mmHg 93%
    02:00 +14°C° 0.1 mm 2 mps 734 mmHg 93%
    03:00 +14°C° 0 mm 2 mps 734 mmHg 94%
    04:00 +13°C° 0 mm 2 mps 734 mmHg 94%
    05:00 +13°C° 0 mm 1 mps 734 mmHg 95%
    06:00 +13°C° 0 mm 2 mps 734 mmHg 92%
    07:00 +14°C° 0 mm 2 mps 734 mmHg 90%
    08:00 +14°C° 0 mm 2 mps 734 mmHg 87%
    09:00 +15°C° 0 mm 2 mps 734 mmHg 81%
    10:00 +17°C° 0 mm 2 mps 735 mmHg 76%
    11:00 +18°C° 0 mm 2 mps 735 mmHg 70%
    12:00 +18°C° 0.1 mm 2 mps 735 mmHg 67%
    13:00 +19°C° 0.1 mm 2 mps 735 mmHg 64%
    14:00 +20°C° 0.1 mm 2 mps 735 mmHg 61%
    15:00 +19°C° 0.1 mm 2 mps 735 mmHg 63%
    16:00 +19°C° 0.1 mm 2 mps 735 mmHg 65%
    17:00 +20°C° 0.1 mm 1 mps 735 mmHg 67%
    18:00 +19°C° 0 mm 1 mps 735 mmHg 72%
    19:00 +16°C° 0 mm 1 mps 735 mmHg 78%
    20:00 +15°C° 0 mm 1 mps 735 mmHg 84%
    21:00 +14°C° 0 mm 1 mps 736 mmHg 85%
    22:00 +14°C° 0 mm 1 mps 736 mmHg 87%
    23:00 +13°C° 0 mm 1 mps 736 mmHg 89%

    27 September, Friday

    Time Temperature Precipitation Wind Pressure Humidity
    00:00 +13°C° 0 mm 1 mps 736 mmHg 89%
    01:00 +13°C° 0 mm 1 mps 736 mmHg 90%
    02:00 +13°C° 0 mm 1 mps 736 mmHg 90%
    03:00 +12°C° 0 mm 1 mps 737 mmHg 91%
    04:00 +12°C° 0 mm 1 mps 737 mmHg 92%
    05:00 +12°C° 0 mm 1 mps 737 mmHg 93%
    06:00 +12°C° 0 mm 1 mps 737 mmHg 91%
    07:00 +13°C° 0 mm 2 mps 737 mmHg 89%
    08:00 +14°C° 0 mm 2 mps 737 mmHg 87%
    09:00 +15°C° 0 mm 2 mps 738 mmHg 82%
    10:00 +16°C° 0 mm 2 mps 738 mmHg 78%
    11:00 +17°C° 0 mm 2 mps 738 mmHg 73%
    12:00 +17°C° 0 mm 2 mps 738 mmHg 71%
    13:00 +18°C° 0 mm 2 mps 738 mmHg 70%
    14:00 +18°C° 0 mm 2 mps 738 mmHg 68%
    15:00 +18°C° 0 mm 2 mps 738 mmHg 69%
    16:00 +17°C° 0 mm 2 mps 738 mmHg 69%
    17:00 +17°C° 0 mm 2 mps 738 mmHg 70%
    18:00 +16°C° 0 mm 2 mps 739 mmHg 74%
    19:00 +15°C° 0 mm 2 mps 739 mmHg 79%
    20:00 +14°C° 0 mm 1 mps 739 mmHg 83%
    21:00 +13°C° 0 mm 1 mps 739 mmHg 86%
    22:00 +12°C° 0 mm 1 mps 740 mmHg 88%
    23:00 +11°C° 0 mm 1 mps 740 mmHg 91%

    28 September, Saturday

    Time Temperature Precipitation Wind Pressure Humidity
    00:00 +11°C° 0 mm 1 mps 740 mmHg 91%
    01:00 +11°C° 0 mm 1 mps 740 mmHg 91%
    02:00 +10°C° 0 mm 0 mps 740 mmHg 91%
    03:00 +10°C° 0 mm 0 mps 740 mmHg 91%
    04:00 +9°C° 0 mm 0 mps 741 mmHg 91%
    05:00 +9°C° 0 mm 0 mps 741 mmHg 92%
    06:00 +11°C° 0 mm 0 mps 741 mmHg 88%
    07:00 +13°C° 0 mm 1 mps 741 mmHg 84%
    08:00 +14°C° 0 mm 1 mps 741 mmHg 81%
    09:00 +16°C° 0 mm 1 mps 741 mmHg 73%
    10:00 +18°C° 0 mm 2 mps 741 mmHg 66%
    11:00 +20°C° 0 mm 2 mps 742 mmHg 58%
    12:00 +20°C° 0 mm 2 mps 741 mmHg 55%
    13:00 +21°C° 0 mm 2 mps 741 mmHg 51%
    14:00 +23°C° 0 mm 2 mps 741 mmHg 48%
    15:00 +21°C° 0 mm 2 mps 740 mmHg 50%
    16:00 +22°C° 0 mm 1 mps 740 mmHg 52%
    17:00 +21°C° 0 mm 1 mps 740 mmHg 55%
    18:00 +20°C° 0 mm 1 mps 740 mmHg 58%
    19:00 +19°C° 0 mm 1 mps 740 mmHg 61%
    20:00 +16°C° 0 mm 2 mps 740 mmHg 64%
    21:00 +16°C° 0 mm 2 mps 740 mmHg 66%
    22:00 +15°C° 0 mm 2 mps 740 mmHg 69%
    23:00 +14°C° 0 mm 3 mps 740 mmHg 71%
    Show more